This is the latest recevied weather packets stored in our database for station/object AA8FM-13. If no packets are shown the sender has not sent any weather packets the latest 10 day(s).
| Time | Temp. | Humidity | Pressure | Rain* | Wind** | Luminosity | Snow |
|---|---|---|---|---|---|---|---|
| 1778046914 | 16.11° C | 81% | 1005.3 hPa | 0 mm | - | 0 W/m² | - |
| 1778046610 | 15.56° C | 77% | 1005.4 hPa | 0 mm | - | 0 W/m² | - |
| 1778046308 | 15.56° C | 79% | 1005.4 hPa | 0 mm | - | 0 W/m² | - |
| 1778046003 | 15.56° C | 81% | 1005.2 hPa | 0 mm | - | 0 W/m² | - |
| 1778045702 | 16.11° C | 82% | 1005.6 hPa | 0 mm | - | 0 W/m² | - |
| 1778045400 | 16.11° C | 80% | 1005.4 hPa | 0 mm | - | 0 W/m² | - |
| 1778045098 | 16.11° C | 78% | 1005.6 hPa | 0 mm | - | 0 W/m² | - |
| 1778044795 | 16.11° C | 78% | 1005.8 hPa | 0 mm | - | 0 W/m² | - |
| 1778044492 | 16.11° C | 78% | 1005.9 hPa | 0 mm | - | 0 W/m² | - |
| 1778044189 | 16.11° C | 82% | 1005.8 hPa | 0 mm | - | 0 W/m² | - |
| 1778043887 | 16.67° C | 79% | 1005.6 hPa | 0 mm | - | 0 W/m² | - |
| 1778043583 | 16.67° C | 76% | 1006 hPa | 0 mm | - | 0 W/m² | - |
| 1778043280 | 17.22° C | 71% | 1005.9 hPa | 0 mm | - | 0 W/m² | - |
| 1778042977 | 17.22° C | 69% | 1006.2 hPa | 0 mm | - | 0 W/m² | - |
| 1778042675 | 17.22° C | 69% | 1006.1 hPa | 0 mm | - | 0 W/m² | - |
| 1778042371 | 17.22° C | 70% | 1006.1 hPa | 0 mm | - | 0 W/m² | - |
| 1778042069 | 17.22° C | 70% | 1006.3 hPa | 0 mm | - | 0 W/m² | - |
| 1778041767 | 16.67° C | 74% | 1006.1 hPa | 0 mm | - | 0 W/m² | - |
| 1778041466 | 17.22° C | 76% | 1005.7 hPa | 0 mm | - | 0 W/m² | - |
| 1778041164 | 17.78° C | 70% | 1005.6 hPa | 0 mm | - | 0 W/m² | - |
| 1778040861 | 17.22° C | 64% | 1005.7 hPa | 0 mm | - | 0 W/m² | - |
| 1778040558 | 17.78° C | 71% | 1005.8 hPa | 0 mm | - | 0 W/m² | - |
| 1778040256 | 17.78° C | 64% | 1005.7 hPa | 0 mm | - | 0 W/m² | - |
| 1778039951 | 17.78° C | 69% | 1005.9 hPa | 0 mm | - | 0 W/m² | - |
| 1778039649 | 17.78° C | 65% | 1005.9 hPa | 0 mm | - | 0 W/m² | - |
* Rain latest hour (hover to see other rain measurements)
** Current wind speed in m/s (hover to see current wind gust speed)